Total_Precipitation_Accumulation
1.18 1.05 0.98 1.16 1.16 1.21 1.25 1.32 1.33 1.20 1.09 0.99 0.94 0.87 0.91 0.86 0.82 0.79 0.98 1.10 1.37 1.81 2.03 2.00 1.95 1.72 1.62 1.53 1.57 1.61 1.66 1.63 1.84 2.26 2.93 3.18 2.81 2.12 1.61 1.36 1.31 1.21 1.27
1.08 1.08 0.93 1.00 1.10 1.25 1.45 1.52 1.37 1.28 1.22 1.16 1.16 1.09 1.05 0.97 0.91 0.80 0.90 0.97 0.93 1.14 1.53 1.99 2.21 2.04 1.86 1.71 1.62 1.64 1.65 1.60 1.71 1.97 2.13 2.31 2.35 2.01 1.52 1.31 1.26 1.15 1.28
0.94 1.05 1.04 1.00 1.04 1.25 1.50 1.65 1.53 1.42 1.27 1.26 1.26 1.25 1.13 1.10 1.03 0.93 0.96 1.08 0.93 0.88 1.16 1.67 2.10 2.23 2.11 1.99 1.82 1.75 1.64 1.57 1.60 1.74 1.88 1.88 1.97 1.89 1.58 1.39 1.27 1.23 1.24
0.96 1.08 1.13 1.07 1.07 1.27 1.51 1.70 1.76 1.72 1.60 1.53 1.45 1.37 1.30 1.37 1.22 1.10 1.08 1.16 1.26 1.10 1.07 1.29 1.61 1.91 2.14 2.21 1.98 1.74 1.59 1.49 1.48 1.49 1.61 1.52 1.60 1.66 1.48 1.31 1.29 1.33 1.35
0.99 1.11 1.28 1.30 1.30 1.41 1.51 1.56 1.67 1.67 1.69 1.70 1.51 1.47 1.39 1.47 1.49 1.34 1.39 1.41 1.44 1.40 1.26 1.11 1.21 1.31 1.69 2.06 2.06 1.87 1.72 1.58 1.48 1.42 1.51 1.37 1.34 1.42 1.28 1.25 1.30 1.35 1.33
1.21 1.16 1.29 1.30 1.37 1.55 1.60 1.71 1.91 1.84 1.73 1.82 1.65 1.56 1.51 1.48 1.47 1.54 1.60 1.58 1.55 1.45 1.44 1.26 1.29 1.14 1.23 1.54 1.75 1.84 1.79 1.79 1.74 1.59 1.57 1.41 1.24 1.23 1.23 1.16 1.15 1.19 1.24
1.32 1.34 1.35 1.35 1.40 1.48 1.53 1.69 2.04 2.06 1.88 1.78 1.96 1.93 1.84 1.64 1.56 1.58 1.60 1.69 1.71 1.57 1.56 1.57 1.45 1.24 1.04 1.05 1.18 1.49 1.65 1.89 2.01 1.86 1.75 1.55 1.26 1.24 1.29 1.11 1.13 1.18 1.15
1.30 1.23 1.39 1.48 1.45 1.57 1.64 1.79 2.06 2.25 2.05 1.86 2.19 2.60 2.38 2.11 1.78 1.57 1.56 1.49 1.60 1.61 1.52 1.40 1.32 1.25 1.12 1.09 0.88 1.06 1.35 1.81 2.21 2.09 1.83 1.67 1.43 1.30 1.29 1.16 1.14 1.18 1.19
1.55 1.49 1.57 1.69 1.61 1.65 1.73 1.76 1.84 2.26 2.40 2.17 2.14 2.67 2.54 2.36 2.29 1.81 1.46 1.32 1.50 1.63 1.63 1.49 1.39 1.39 1.32 1.24 1.04 0.87 1.03 1.42 1.96 2.08 1.90 1.84 1.68 1.46 1.33 1.24 1.20 1.20 1.31
1.77 1.66 1.66 1.70 1.71 1.77 1.73 1.61 1.76 2.16 2.60 2.61 2.40 2.21 2.07 2.05 2.24 2.15 1.61 1.34 1.42 1.54 1.69 1.57 1.50 1.50 1.48 1.45 1.36 1.08 0.88 1.01 1.51 2.04 2.19 2.16 1.99 1.74 1.60 1.48 1.40 1.38 1.36
1.78 1.63 1.57 1.63 1.70 1.78 1.77 1.82 2.00 2.29 2.55 2.76 2.71 2.46 2.19 1.96 1.63 1.83 1.84 1.64 1.41 1.33 1.39 1.47 1.57 1.56 1.50 1.45 1.51 1.32 0.96 0.82 1.07 1.64 2.13 2.27 2.13 2.00 1.97 1.90 1.83 1.81 1.68
1.61 1.56 1.54 1.52 1.48 1.55 1.65 1.82 2.07 2.21 2.40 2.62 2.66 2.40 2.22 2.08 1.89 1.77 1.64 1.71 1.69 1.40 1.26 1.24 1.34 1.46 1.46 1.45 1.30 1.37 1.16 0.88 0.84 1.01 1.36 1.78 1.93 2.01 2.07 2.13 2.08 1.99 1.98
1.39 1.40 1.42 1.39 1.30 1.28 1.40 1.59 1.81 1.88 2.00 2.21 2.30 2.19 2.07 1.89 1.86 1.92 1.89 1.80 1.67 1.41 1.27 1.09 1.15 1.29 1.29 1.34 1.39 1.40 1.18 1.05 0.86 0.81 0.88 1.04 1.34 1.69 1.99 2.19 2.25 2.22 2.17
1.23 1.15 1.18 1.19 1.18 1.18 1.21 1.33 1.47 1.51 1.61 1.82 1.90 1.93 1.82 1.76 1.80 1.80 1.84 1.97 1.84 1.61 1.28 0.98 1.00 1.14 1.09 1.13 1.34 1.37 1.03 0.99 0.89 0.81 0.77 0.77 0.84 1.09 1.47 1.71 1.93 2.14 2.19
1.01 0.96 1.02 1.11 1.18 1.12 1.08 1.15 1.26 1.30 1.43 1.58 1.71 1.85 1.76 1.71 1.72 1.77 1.84 1.90 1.91 1.78 1.51 1.11 0.97 0.92 0.94 1.02 1.31 1.16 1.01 1.00 0.90 0.83 0.75 0.67 0.63 0.65 0.81 1.00 1.24 1.46 1.60
0.92 0.91 0.93 0.94 0.97 0.97 1.01 1.13 1.25 1.33 1.35 1.41 1.50 1.63 1.74 1.76 1.79 1.79 1.84 1.85 1.80 1.77 1.68 1.29 1.04 0.87 0.93 0.91 1.14 0.95 1.05 1.21 0.99 0.82 0.72 0.67 0.63 0.62 0.62 0.71 0.78 0.84 0.88
0.72 0.73 0.70 0.74 0.87 0.88 0.88 1.02 1.10 1.11 1.23 1.32 1.31 1.34 1.51 1.63 1.74 1.79 1.80 1.79 1.83 1.78 1.66 1.44 1.13 0.95 1.03 1.05 1.12 0.98 0.97 1.02 0.93 0.88 0.79 0.70 0.63 0.61 0.58 0.61 0.62 0.59 0.60
0.49 0.54 0.58 0.58 0.77 0.93 0.96 0.99 1.00 0.98 1.08 1.15 1.18 1.24 1.31 1.33 1.42 1.57 1.68 1.67 1.75 1.79 1.75 1.64 1.35 1.11 1.09 1.15 1.29 1.30 1.21 1.13 1.10 1.17 1.11 0.93 0.77 0.69 0.66 0.64 0.61 0.57 0.53
0.40 0.42 0.54 0.54 0.60 0.76 0.88 0.88 0.86 0.89 0.93 0.99 1.02 1.07 1.11 1.18 1.29 1.32 1.40 1.49 1.57 1.63 1.72 1.65 1.55 1.42 1.25 1.19 1.25 1.25 1.32 1.47 1.41 1.38 1.42 1.25 1.02 0.86 0.77 0.73 0.69 0.63 0.58
0.44 0.40 0.40 0.42 0.48 0.58 0.71 0.73 0.73 0.75 0.78 0.80 0.92 0.99 1.02 1.05 1.14 1.21 1.22 1.35 1.47 1.56 1.58 1.55 1.49 1.43 1.37 1.34 1.35 1.32 1.38 1.52 1.60 1.49 1.45 1.37 1.27 1.14 0.98 0.87 0.77 0.71 0.67
0.27 0.29 0.26 0.28 0.32 0.40 0.46 0.47 0.55 0.63 0.70 0.73 0.83 0.86 0.89 0.84 0.87 0.94 0.94 1.11 1.27 1.45 1.52 1.56 1.47 1.36 1.31 1.32 1.32 1.33 1.39 1.56 1.60 1.65 1.63 1.50 1.36 1.19 1.07 0.97 0.86 0.80 0.76
0.14 0.18 0.20 0.23 0.26 0.28 0.34 0.33 0.37 0.50 0.60 0.66 0.73 0.76 0.83 0.85 0.80 0.75 0.74 0.82 0.95 1.08 1.26 1.38 1.42 1.34 1.28 1.25 1.34 1.45 1.46 1.54 1.64 1.58 1.50 1.57 1.50 1.38 1.21 1.02 1.03 1.00 0.90
0.11 0.13 0.16 0.21 0.23 0.19 0.21 0.20 0.31 0.51 0.56 0.57 0.56 0.68 0.80 0.86 0.88 0.90 0.79 0.77 0.78 0.82 0.92 1.09 1.22 1.23 1.22 1.24 1.30 1.39 1.47 1.51 1.43 1.48 1.43 1.51 1.50 1.37 1.22 1.15 1.20 1.07 1.00
0.10 0.14 0.16 0.22 0.20 0.13 0.14 0.17 0.25 0.41 0.49 0.47 0.49 0.59 0.75 0.86 0.88 0.91 0.86 0.92 0.90 0.79 0.77 0.84 1.03 1.11 1.11 1.23 1.36 1.47 1.59 1.58 1.52 1.51 1.44 1.46 1.41 1.27 1.16 1.15 1.23 1.09 0.99
0.10 0.13 0.16 0.18 0.14 0.11 0.11 0.15 0.24 0.40 0.48 0.48 0.45 0.53 0.68 0.77 0.87 0.88 0.86 0.96 0.96 0.78 0.71 0.81 0.86 0.93 1.01 1.13 1.31 1.45 1.54 1.56 1.54 1.51 1.36 1.23 1.18 1.23 1.23 1.16 1.14 1.12 1.01
0.11 0.12 0.14 0.14 0.13 0.14 0.13 0.12 0.19 0.29 0.39 0.46 0.47 0.51 0.70 0.75 0.78 0.75 0.78 0.98 1.07 0.94 0.71 0.69 0.76 0.89 0.97 1.10 1.32 1.46 1.68 1.69 1.49 1.46 1.35 1.21 1.20 1.28 1.41 1.32 1.13 1.03 0.96